This is the latest recevied weather packets stored in our database for station/object KB7STN. If no packets are shown the sender has not sent any weather packets the latest 10 day(s).
| Time | Temp. | Humidity | Pressure | Rain* | Wind** | Luminosity | Snow |
|---|---|---|---|---|---|---|---|
| 1788611114 | 19.44° C | 26% | 1018 hPa | 0 mm | - | - | - |
| 1788610824 | 19.44° C | 26% | 1018.1 hPa | 0 mm | - | - | - |
| 1788610514 | 19.44° C | 26% | 1018 hPa | 0 mm | - | - | - |
| 1788610214 | 19.44° C | 26% | 1018 hPa | 0 mm | - | - | - |
| 1788609914 | 19.44° C | 26% | 1018.1 hPa | 0 mm | - | - | - |
| 1788609614 | 19.44° C | 26% | 1018.1 hPa | 0 mm | - | - | - |
| 1788609334 | 19.44° C | 26% | 1018.1 hPa | 0 mm | - | - | - |
| 1788609014 | 19.44° C | 26% | 1018.1 hPa | 0 mm | - | - | - |
| 1788608714 | 19.44° C | 26% | 1018.1 hPa | 0 mm | - | - | - |
| 1788608414 | 19.44° C | 28% | 1018.1 hPa | 0 mm | - | - | - |
| 1788608114 | 18.89° C | 27% | 1017.9 hPa | 0 mm | - | - | - |
| 1788607814 | 18.89° C | 29% | 1018 hPa | 0 mm | - | - | - |
| 1788607514 | 18.89° C | 31% | 1018.1 hPa | 0 mm | - | - | - |
| 1788607214 | 19.44° C | 33% | 1018 hPa | 0 mm | - | - | - |
| 1788606914 | 19.44° C | 31% | 1018 hPa | 0 mm | - | - | - |
| 1788606614 | 19.44° C | 27% | 1017.9 hPa | 0 mm | - | - | - |
| 1788606314 | 19.44° C | 27% | 1017.9 hPa | 0 mm | - | - | - |
| 1788606014 | 19.44° C | 27% | 1017.8 hPa | 0 mm | - | - | - |
| 1788605714 | 19.44° C | 28% | 1017.8 hPa | 0 mm | - | - | - |
| 1788605414 | 19.44° C | 31% | 1017.7 hPa | 0 mm | - | - | - |
| 1788605114 | 19.44° C | 32% | 1017.8 hPa | 0 mm | - | - | - |
| 1788604814 | 20° C | 30% | 1017.7 hPa | 0 mm | - | - | - |
| 1788604514 | 20° C | 30% | 1017.7 hPa | 0 mm | - | - | - |
| 1788604214 | 20° C | 28% | 1017.8 hPa | 0 mm | - | - | - |
| 1788603914 | 20.56° C | 26% | 1017.8 hPa | 0 mm | - | - | - |
* Rain latest hour (hover to see other rain measurements)
** Current wind speed in m/s (hover to see current wind gust speed)